| time (UTC) | temp C | wind direction | speed KPH | gust KPH | rain 1hr cm | rain 24hr cm | rain mn cm | humidity % | barometer mb |
| 20260510072238 | 22 | 134 | 3.2 | 6.4 | 0.00 | 0.03 | 0.00 | 80 | 1011.4 |
| 20260510071738 | 22 | 129 | 3.2 | 6.4 | 0.00 | 0.03 | 0.00 | 80 | 1011.5 |
| 20260510071237 | 22 | 128 | 3.2 | 6.4 | 0.00 | 0.03 | 0.00 | 79 | 1011.5 |
| 20260510070738 | 22 | 129 | 3.2 | 6.4 | 0.00 | 0.03 | 0.00 | 79 | 1011.5 |
| 20260510070241 | 22 | 130 | 1.6 | 6.4 | 0.00 | 0.03 | 0.00 | 79 | 1011.4 |
| 20260510070237 | 22 | 129 | 1.6 | 6.4 | 0.00 | 0.03 | 0.00 | 79 | 1011.4 |
| 20260510065240 | 22 | 138 | 1.6 | 4.8 | 0.00 | 0.03 | 0.00 | 78 | 1011.2 |
| 20260510065235 | 22 | 130 | 3.2 | 6.4 | 0.00 | 0.03 | 0.00 | 78 | 1011.2 |
| 20260510064234 | 22 | 138 | 1.6 | 4.8 | 0.00 | 0.03 | 0.00 | 78 | 1011.1 |
| 20260510063735 | 22 | 139 | 3.2 | 4.8 | 0.00 | 0.03 | 0.00 | 78 | 1011.1 |
| 20260510063234 | 22 | 138 | 3.2 | 4.8 | 0.00 | 0.03 | 0.00 | 78 | 1011.1 |
| 20260510062733 | 22 | 139 | 3.2 | 6.4 | 0.00 | 0.03 | 0.00 | 78 | 1011.2 |
| 20260510062232 | 22 | 140 | 3.2 | 6.4 | 0.00 | 0.03 | 0.00 | 77 | 1011.2 |
| 20260510062004 | 22 | 140 | 1.6 | 4.8 | 0.00 | 0.03 | 0.00 | 77 | 1011.2 |
| 20260510061459 | 22 | 140 | 1.6 | 3.2 | 0.00 | 0.03 | 0.00 | 77 | 1011.0 |
| 20260510060721 | 22 | 140 | 1.6 | 4.8 | 0.00 | 0.03 | 0.00 | 77 | 1011.2 |
| 20260510060213 | 22 | 140 | 1.6 | 4.8 | 0.00 | 0.03 | 0.00 | 77 | 1011.2 |
| 20260510055707 | 23 | 140 | 1.6 | 4.8 | 0.00 | 0.03 | 0.00 | 77 | 1011.1 |
| 20260510055201 | 23 | 140 | 1.6 | 4.8 | 0.00 | 0.03 | 0.00 | 77 | 1011.1 |
| 20260510054655 | 23 | 140 | 1.6 | 3.2 | 0.00 | 0.03 | 0.00 | 77 | 1011.1 |
| 20260510054420 | 23 | 140 | 1.6 | 3.2 | 0.00 | 0.03 | 0.00 | 77 | 1011.1 |
| 20260510054307 | 23 | 140 | 1.6 | 3.2 | 0.00 | 0.03 | 0.00 | 77 | 1011.1 |
| 20260510053146 | 23 | 140 | 1.6 | 4.8 | 0.00 | 0.03 | 0.00 | 77 | 1011.1 |
| 20260510052646 | 23 | 140 | 1.6 | 4.8 | 0.00 | 0.03 | 0.00 | 77 | 1011.2 |
| 20260510052146 | 23 | 140 | 1.6 | 4.8 | 0.00 | 0.03 | 0.00 | 77 | 1011.2 |
| 20260510051919 | 23 | 140 | 1.6 | 4.8 | 0.00 | 0.03 | 0.00 | 77 | 1011.4 |
| 20260510051417 | 23 | 140 | 1.6 | 4.8 | 0.00 | 0.03 | 0.00 | 77 | 1011.2 |
| 20260510050917 | 23 | 141 | 0.0 | 3.2 | 0.00 | 0.03 | 0.00 | 77 | 1011.1 |
| 20260510050147 | 23 | 141 | 1.6 | 3.2 | 0.00 | 0.03 | 0.00 | 77 | 1011.1 |
| 20260510045644 | 23 | 141 | 1.6 | 4.8 | 0.00 | 0.03 | 0.03 | 77 | 1011.0 |
| 20260510045144 | 23 | 141 | 1.6 | 4.8 | 0.00 | 0.03 | 0.03 | 77 | 1011.0 |
| 20260510044642 | 23 | 141 | 1.6 | 3.2 | 0.00 | 0.03 | 0.03 | 77 | 1011.0 |
| 20260510044143 | 24 | 141 | 1.6 | 4.8 | 0.00 | 0.03 | 0.03 | 77 | 1011.0 |
| 20260510043916 | 24 | 141 | 0.0 | 4.8 | 0.00 | 0.03 | 0.03 | 77 | 1011.1 |
| 20260510043140 | 24 | 142 | 0.0 | 0.0 | 0.00 | 0.03 | 0.03 | 76 | 1011.1 |
| 20260510042639 | 24 | 142 | 0.0 | 0.0 | 0.00 | 0.03 | 0.03 | 76 | 1011.0 |
| 20260510042139 | 24 | 142 | 0.0 | 0.0 | 0.00 | 0.03 | 0.03 | 76 | 1010.9 |
| 20260510041638 | 25 | 142 | 0.0 | 0.0 | 0.00 | 0.03 | 0.03 | 76 | 1010.8 |
| 20260510041140 | 25 | 142 | 0.0 | 0.0 | 0.00 | 0.03 | 0.03 | 76 | 1010.9 |
| 20260510040639 | 25 | 142 | 0.0 | 0.0 | 0.00 | 0.03 | 0.03 | 76 | 1010.7 |
| 20260510040140 | 25 | 142 | 0.0 | 0.0 | 0.00 | 0.03 | 0.03 | 76 | 1010.7 |
| 20260510035640 | 25 | 142 | 0.0 | 0.0 | 0.00 | 0.03 | 0.03 | 76 | 1010.6 |
| 20260510035140 | 25 | 142 | 0.0 | 0.0 | 0.00 | 0.03 | 0.03 | 76 | 1010.6 |
| 20260510034912 | 25 | 142 | 0.0 | 0.0 | 0.00 | 0.03 | 0.03 | 75 | 1010.5 |
| 20260510034139 | 25 | 142 | 0.0 | 0.0 | 0.00 | 0.03 | 0.03 | 76 | 1010.5 |
| 20260510033916 | 25 | 142 | 0.0 | 0.0 | 0.00 | 0.03 | 0.03 | 75 | 1010.4 |
| 20260510033639 | 25 | 142 | 0.0 | 0.0 | 0.00 | 0.03 | 0.03 | 75 | 1010.5 |
| 20260510032639 | 25 | 142 | 0.0 | 0.0 | 0.00 | 0.03 | 0.03 | 75 | 1010.5 |
| 20260510032139 | 25 | 142 | 0.0 | 0.0 | 0.00 | 0.03 | 0.03 | 75 | 1010.4 |
| 20260510031639 | 25 | 142 | 0.0 | 0.0 | 0.00 | 0.03 | 0.03 | 75 | 1010.4 |
| 20260510031410 | 25 | 142 | 0.0 | 0.0 | 0.00 | 0.03 | 0.03 | 75 | 1010.4 |
| 20260510030635 | 26 | 142 | 0.0 | 0.0 | 0.00 | 0.03 | 0.03 | 75 | 1010.2 |
| 20260510030135 | 26 | 142 | 0.0 | 1.6 | 0.00 | 0.03 | 0.03 | 75 | 1010.2 |
| 20260510025628 | 26 | 142 | 0.0 | 6.4 | 0.00 | 0.03 | 0.03 | 75 | 1010.1 |
| 20260510025123 | 26 | 142 | 1.6 | 6.4 | 0.00 | 0.03 | 0.03 | 75 | 1010.0 |
| 20260510024617 | 26 | 142 | 3.2 | 6.4 | 0.00 | 0.03 | 0.03 | 75 | 1009.9 |
| 20260510024111 | 26 | 142 | 3.2 | 6.4 | 0.00 | 0.03 | 0.03 | 75 | 1009.8 |
| 20260510023605 | 26 | 140 | 3.2 | 8.0 | 0.00 | 0.03 | 0.03 | 75 | 1009.9 |
| 20260510023058 | 26 | 140 | 3.2 | 8.0 | 0.00 | 0.03 | 0.03 | 75 | 1009.7 |
| 20260510022553 | 26 | 150 | 3.2 | 8.0 | 0.00 | 0.03 | 0.03 | 74 | 1009.7 |
| 20260510022318 | 26 | 142 | 3.2 | 6.4 | 0.00 | 0.03 | 0.03 | 73 | 1009.7 |
| 20260510021541 | 26 | 135 | 3.2 | 6.4 | 0.00 | 0.03 | 0.03 | 73 | 1009.6 |
| 20260510021306 | 26 | 134 | 4.8 | 8.0 | 0.00 | 0.03 | 0.03 | 72 | 1009.6 |
| 20260510020755 | 27 | 153 | 3.2 | 9.7 | 0.00 | 0.03 | 0.03 | 71 | 1009.5 |
| 20260510020630 | 26 | 134 | 3.2 | 9.7 | 0.00 | 0.03 | 0.03 | 72 | 1009.6 |
| 20260510015517 | 27 | 146 | 1.6 | 4.8 | 0.00 | 0.03 | 0.03 | 70 | 1009.5 |
| 20260510015012 | 27 | 146 | 1.6 | 4.8 | 0.00 | 0.03 | 0.03 | 70 | 1009.4 |
| 20260510014505 | 27 | 146 | 1.6 | 4.8 | 0.00 | 0.03 | 0.03 | 69 | 1009.4 |
| 20260510013959 | 27 | 146 | 0.0 | 0.0 | 0.00 | 0.03 | 0.03 | 68 | 1009.3 |
| 20260510013455 | 28 | 146 | 0.0 | 0.0 | 0.00 | 0.03 | 0.03 | 68 | 1009.2 |
| 20260510013450 | 28 | 146 | 0.0 | 0.0 | 0.00 | 0.03 | 0.03 | 68 | 1009.2 |
| 20260510012712 | 28 | 146 | 0.0 | 0.0 | 0.00 | 0.03 | 0.03 | 68 | 1009.1 |
| 20260510011935 | 28 | 146 | 0.0 | 0.0 | 0.00 | 0.03 | 0.03 | 67 | 1009.1 |
| 20260510011429 | 28 | 146 | 0.0 | 0.0 | 0.00 | 0.03 | 0.03 | 67 | 1009.0 |
| 20260510011156 | 28 | 146 | 0.0 | 0.0 | 0.00 | 0.03 | 0.03 | 67 | 1009.0 |
| 20260510010918 | 28 | 146 | 1.6 | 3.2 | 0.00 | 0.03 | 0.03 | 67 | 1009.0 |
| 20260510005911 | 28 | 146 | 3.2 | 8.0 | 0.00 | 0.03 | 0.03 | 66 | 1009.4 |
| 20260510005637 | 28 | 146 | 3.2 | 11.3 | 0.00 | 0.03 | 0.03 | 66 | 1009.0 |
| 20260510004859 | 28 | 144 | 4.8 | 11.3 | 0.00 | 0.03 | 0.03 | 66 | 1008.9 |
| 20260510004353 | 28 | 127 | 4.8 | 11.3 | 0.00 | 0.03 | 0.03 | 65 | 1008.8 |
| 20260510003846 | 28 | 144 | 6.4 | 11.3 | 0.00 | 0.03 | 0.03 | 65 | 1008.8 |
| 20260510003613 | 28 | 123 | 4.8 | 11.3 | 0.00 | 0.03 | 0.03 | 65 | 1008.7 |
| 20260510002835 | 28 | 157 | 4.8 | 11.3 | 0.00 | 0.03 | 0.03 | 64 | 1008.8 |
| 20260510002329 | 29 | 140 | 4.8 | 9.7 | 0.00 | 0.03 | 0.03 | 64 | 1008.7 |
| 20260510001824 | 29 | 144 | 4.8 | 11.3 | 0.00 | 0.03 | 0.03 | 64 | 1008.7 |
| 20260510001317 | 29 | 152 | 4.8 | 11.3 | 0.00 | 0.03 | 0.03 | 63 | 1008.6 |
| 20260510000811 | 29 | 146 | 4.8 | 11.3 | 0.00 | 0.03 | 0.03 | 63 | 1008.5 |
| 20260510000311 | 29 | 136 | 4.8 | 11.3 | 0.00 | 0.03 | 0.03 | 62 | 1008.5 |
| 20260510000304 | 29 | 151 | 4.8 | 12.9 | 0.00 | 0.03 | 0.03 | 62 | 1008.4 |
| 20260509235253 | 29 | 153 | 4.8 | 12.9 | 0.00 | 0.03 | 0.03 | 61 | 1008.4 |
| 20260509234747 | 29 | 140 | 4.8 | 11.3 | 0.00 | 0.03 | 0.03 | 61 | 1008.4 |
| 20260509234241 | 29 | 145 | 3.2 | 11.3 | 0.00 | 0.03 | 0.03 | 61 | 1008.3 |
| 20260509233735 | 30 | 67 | 3.2 | 9.7 | 0.00 | 0.03 | 0.03 | 60 | 1008.2 |
| 20260509233229 | 30 | 121 | 3.2 | 12.9 | 0.00 | 0.03 | 0.03 | 60 | 1008.2 |
| 20260509232955 | 30 | 171 | 3.2 | 12.9 | 0.00 | 0.03 | 0.03 | 60 | 1008.2 |
| 20260509232217 | 30 | 72 | 4.8 | 14.5 | 0.00 | 0.03 | 0.03 | 60 | 1008.1 |
| 20260509231710 | 30 | 122 | 3.2 | 14.5 | 0.00 | 0.03 | 0.03 | 59 | 1008.2 |
| 20260509231204 | 30 | 355 | 3.2 | 9.7 | 0.00 | 0.03 | 0.03 | 59 | 1008.2 |
| 20260509230659 | 30 | 145 | 4.8 | 11.3 | 0.00 | 0.03 | 0.03 | 58 | 1008.2 |
| 20260509230420 | 30 | 134 | 4.8 | 12.9 | 0.00 | 0.03 | 0.03 | 57 | 1008.2 |
| 20260509230255 | 30 | 120 | 4.8 | 11.3 | 0.00 | 0.03 | 0.03 | 58 | 1008.2 |
| 20260509225141 | 30 | 86 | 4.8 | 12.9 | 0.00 | 0.03 | 0.03 | 56 | 1008.2 |
| 20260509224635 | 30 | 78 | 4.8 | 14.5 | 0.00 | 0.03 | 0.03 | 53 | 1008.2 |
| 20260509224129 | 30 | 116 | 4.8 | 14.5 | 0.00 | 0.03 | 0.03 | 51 | 1008.1 |
| 20260509223854 | 30 | 87 | 4.8 | 12.9 | 0.00 | 0.03 | 0.03 | 51 | 1008.3 |
| 20260509223117 | 30 | 83 | 4.8 | 14.5 | 0.00 | 0.03 | 0.03 | 50 | 1008.1 |
| 20260509222611 | 30 | 15 | 6.4 | 14.5 | 0.00 | 0.03 | 0.03 | 50 | 1008.0 |
| 20260509222106 | 30 | 119 | 6.4 | 14.5 | 0.00 | 0.03 | 0.03 | 48 | 1008.0 |
| 20260509221559 | 30 | 73 | 6.4 | 12.9 | 0.00 | 0.03 | 0.03 | 49 | 1008.0 |
| 20260509221053 | 30 | 42 | 4.8 | 11.3 | 0.00 | 0.03 | 0.03 | 49 | 1007.8 |
| 20260509220547 | 30 | 145 | 4.8 | 11.3 | 0.00 | 0.03 | 0.03 | 51 | 1007.8 |
| 20260509220041 | 30 | 120 | 3.2 | 9.7 | 0.00 | 0.03 | 0.03 | 51 | 1007.7 |
| 20260509215535 | 30 | 72 | 1.6 | 8.0 | 0.00 | 0.03 | 0.03 | 53 | 1007.8 |
| 20260509215029 | 30 | 149 | 0.0 | 6.4 | 0.00 | 0.03 | 0.03 | 53 | 1008.0 |
| 20260509214524 | 29 | 160 | 1.6 | 9.7 | 0.00 | 0.03 | 0.03 | 53 | 1008.0 |
| 20260509214018 | 29 | 161 | 1.6 | 9.7 | 0.00 | 0.03 | 0.03 | 53 | 1008.1 |
| 20260509213512 | 29 | 144 | 3.2 | 14.5 | 0.00 | 0.03 | 0.03 | 54 | 1008.3 |
| 20260509213006 | 28 | 156 | 4.8 | 14.5 | 0.00 | 0.03 | 0.03 | 53 | 1008.3 |
| 20260509212458 | 28 | 167 | 4.8 | 11.3 | 0.00 | 0.03 | 0.03 | 52 | 1008.6 |
| 20260509211953 | 28 | 144 | 6.4 | 19.3 | 0.00 | 0.03 | 0.03 | 52 | 1008.7 |
| 20260509211718 | 28 | 195 | 6.4 | 19.3 | 0.00 | 0.03 | 0.03 | 51 | 1008.9 |
| 20260509210941 | 28 | 141 | 6.4 | 19.3 | 0.00 | 0.03 | 0.03 | 54 | 1008.8 |
| 20260509210435 | 28 | 96 | 8.0 | 19.3 | 0.00 | 0.03 | 0.03 | 54 | 1008.8 |
| 20260509205929 | 28 | 92 | 6.4 | 19.3 | 0.00 | 0.03 | 0.03 | 56 | 1008.9 |
| 20260509205423 | 28 | 148 | 6.4 | 16.1 | 0.00 | 0.03 | 0.03 | 55 | 1008.9 |
| 20260509204918 | 28 | 88 | 9.7 | 22.5 | 0.00 | 0.03 | 0.03 | 53 | 1008.8 |
| 20260509204416 | 28 | 198 | 9.7 | 22.5 | 0.00 | 0.03 | 0.03 | 54 | 1009.0 |
| 20260509203917 | 29 | 184 | 6.4 | 17.7 | 0.00 | 0.03 | 0.03 | 57 | 1009.1 |
| 20260509203416 | 30 | 132 | 8.0 | 19.3 | 0.00 | 0.03 | 0.03 | 57 | 1009.1 |
| 20260509202917 | 30 | 151 | 8.0 | 27.4 | 0.00 | 0.03 | 0.03 | 58 | 1009.1 |
| 20260509202417 | 31 | 82 | 6.4 | 27.4 | 0.00 | 0.03 | 0.03 | 58 | 1009.2 |
| 20260509201922 | 32 | 111 | 8.0 | 27.4 | 0.00 | 0.03 | 0.03 | 56 | 1009.3 |
| 20260509201917 | 31 | 23 | 8.0 | 27.4 | 0.00 | 0.03 | 0.03 | 58 | 1009.1 |
| 20260509200916 | 33 | 344 | 6.4 | 17.7 | 0.00 | 0.03 | 0.03 | 53 | 1009.3 |
| 20260509200417 | 35 | 5 | 4.8 | 17.7 | 0.00 | 0.03 | 0.03 | 51 | 1009.3 |
| 20260509195911 | 35 | 329 | 1.6 | 8.0 | 0.00 | 0.03 | 0.03 | 51 | 1009.3 |
| 20260509195434 | 36 | 215 | 1.6 | 4.8 | 0.00 | 0.03 | 0.03 | 47 | 1009.0 |
| 20260509195426 | 35 | 215 | 1.6 | 4.8 | 0.00 | 0.03 | 0.03 | 49 | 1009.2 |
| 20260509194411 | 36 | 215 | 1.6 | 6.4 | 0.00 | 0.03 | 0.03 | 47 | 1009.2 |
| 20260509193912 | 36 | 215 | 1.6 | 12.9 | 0.00 | 0.03 | 0.03 | 46 | 1009.3 |
| 20260509193411 | 36 | 171 | 1.6 | 12.9 | 0.00 | 0.03 | 0.03 | 48 | 1009.2 |
| 20260509192911 | 35 | 200 | 1.6 | 8.0 | 0.00 | 0.03 | 0.03 | 48 | 1009.3 |
| 20260509192413 | 35 | 190 | 3.2 | 9.7 | 0.00 | 0.03 | 0.03 | 48 | 1009.3 |
| 20260509191913 | 35 | 321 | 3.2 | 9.7 | 0.00 | 0.03 | 0.03 | 49 | 1009.4 |
| 20260509191413 | 35 | 166 | 3.2 | 8.0 | 0.00 | 0.03 | 0.03 | 49 | 1009.5 |
| 20260509190911 | 35 | 150 | 1.6 | 6.4 | 0.00 | 0.03 | 0.03 | 50 | 1009.6 |
| 20260509190413 | 35 | 205 | 1.6 | 6.4 | 0.00 | 0.03 | 0.03 | 51 | 1009.5 |
| 20260509185910 | 35 | 322 | 3.2 | 9.7 | 0.00 | 0.03 | 0.03 | 52 | 1009.7 |
| 20260509185409 | 34 | 322 | 1.6 | 9.7 | 0.00 | 0.03 | 0.03 | 55 | 1009.7 |
| 20260509184905 | 33 | 165 | 1.6 | 3.2 | 0.00 | 0.03 | 0.03 | 54 | 1009.8 |
| 20260509184406 | 33 | 164 | 1.6 | 4.8 | 0.00 | 0.03 | 0.03 | 54 | 1009.9 |
| 20260509183906 | 33 | 151 | 1.6 | 8.0 | 0.00 | 0.03 | 0.03 | 55 | 1010.0 |
| 20260509183408 | 33 | 150 | 1.6 | 8.0 | 0.00 | 0.03 | 0.03 | 56 | 1010.1 |
| 20260509182905 | 32 | 326 | 1.6 | 4.8 | 0.00 | 0.03 | 0.03 | 59 | 1010.1 |
| 20260509182636 | 32 | 313 | 1.6 | 4.8 | 0.00 | 0.03 | 0.03 | 58 | 1010.1 |
| 20260509182136 | 32 | 313 | 1.6 | 4.8 | 0.00 | 0.03 | 0.03 | 59 | 1010.4 |
| 20260509181403 | 32 | 314 | 3.2 | 9.7 | 0.00 | 0.03 | 0.03 | 59 | 1010.6 |
| 20260509180905 | 31 | 341 | 1.6 | 9.7 | 0.00 | 0.03 | 0.03 | 65 | 1010.5 |
| 20260509180404 | 31 | 345 | 0.0 | 8.0 | 0.00 | 0.03 | 0.03 | 64 | 1010.4 |
| 20260509180129 | 31 | 242 | 1.6 | 3.2 | 0.00 | 0.03 | 0.03 | 63 | 1010.4 |
| 20260509175352 | 31 | 242 | 1.6 | 4.8 | 0.00 | 0.03 | 0.03 | 65 | 1010.5 |
| 20260509174846 | 31 | 240 | 0.0 | 4.8 | 0.00 | 0.03 | 0.03 | 64 | 1010.7 |
| 20260509174340 | 30 | 240 | 1.6 | 3.2 | 0.00 | 0.03 | 0.03 | 66 | 1010.6 |
| 20260509174104 | 30 | 217 | 1.6 | 4.8 | 0.00 | 0.03 | 0.03 | 69 | 1010.9 |
| 20260509173325 | 30 | 215 | 1.6 | 6.4 | 0.00 | 0.03 | 0.03 | 69 | 1011.1 |
| 20260509172821 | 29 | 180 | 1.6 | 8.0 | 0.00 | 0.03 | 0.03 | 70 | 1011.2 |
| 20260509172314 | 29 | 188 | 1.6 | 8.0 | 0.00 | 0.03 | 0.03 | 71 | 1011.1 |
| 20260509171809 | 28 | 170 | 0.0 | 8.0 | 0.00 | 0.03 | 0.03 | 73 | 1011.0 |
| 20260509171302 | 28 | 175 | 0.0 | 3.2 | 0.00 | 0.03 | 0.03 | 75 | 1010.9 |
| 20260509170756 | 28 | 175 | 1.6 | 8.0 | 0.00 | 0.03 | 0.03 | 76 | 1011.0 |
| 20260509170250 | 27 | 174 | 1.6 | 8.0 | 0.00 | 0.03 | 0.03 | 77 | 1011.1 |
| 20260509165744 | 27 | 184 | 1.6 | 6.4 | 0.00 | 0.03 | 0.03 | 79 | 1011.2 |
| 20260509165237 | 27 | 184 | 1.6 | 9.7 | 0.00 | 0.03 | 0.03 | 81 | 1011.3 |
| 20260509165003 | 26 | 168 | 1.6 | 9.7 | 0.00 | 0.03 | 0.03 | 82 | 1011.2 |
| 20260509164225 | 26 | 126 | 0.0 | 3.2 | 0.00 | 0.03 | 0.03 | 84 | 1011.3 |
| 20260509163720 | 26 | 126 | 1.6 | 4.8 | 0.00 | 0.03 | 0.03 | 86 | 1011.3 |
| 20260509163446 | 26 | 126 | 1.6 | 4.8 | 0.00 | 0.03 | 0.03 | 87 | 1011.3 |
| 20260509162708 | 26 | 117 | 1.6 | 4.8 | 0.00 | 0.03 | 0.03 | 87 | 1011.3 |
| 20260509162203 | 25 | 110 | 1.6 | 4.8 | 0.00 | 0.03 | 0.03 | 88 | 1011.3 |
| 20260509161656 | 25 | 252 | 0.0 | 1.6 | 0.00 | 0.03 | 0.03 | 89 | 1011.3 |
| 20260509161150 | 25 | 252 | 0.0 | 4.8 | 0.00 | 0.03 | 0.03 | 89 | 1011.2 |
| 20260509160917 | 25 | 251 | 0.0 | 4.8 | 0.00 | 0.03 | 0.03 | 90 | 1011.2 |
| 20260509160138 | 25 | 257 | 0.0 | 3.2 | 0.00 | 0.03 | 0.03 | 90 | 1011.2 |
| 20260509155632 | 25 | 184 | 0.0 | 1.6 | 0.00 | 0.03 | 0.03 | 90 | 1011.3 |
| 20260509155126 | 25 | 184 | 0.0 | 3.2 | 0.00 | 0.03 | 0.03 | 90 | 1011.1 |
| 20260509154621 | 24 | 182 | 1.6 | 8.0 | 0.00 | 0.03 | 0.03 | 90 | 1011.2 |
| 20260509154114 | 24 | 173 | 1.6 | 8.0 | 0.00 | 0.03 | 0.03 | 91 | 1011.2 |
| 20260509153609 | 24 | 158 | 3.2 | 11.3 | 0.00 | 0.03 | 0.03 | 90 | 1011.3 |
| 20260509153334 | 24 | 153 | 3.2 | 11.3 | 0.00 | 0.03 | 0.03 | 90 | 1011.3 |
| 20260509152556 | 24 | 172 | 3.2 | 11.3 | 0.00 | 0.03 | 0.03 | 91 | 1011.5 |
| 20260509152050 | 23 | 157 | 3.2 | 11.3 | 0.00 | 0.03 | 0.03 | 90 | 1011.6 |
| 20260509151544 | 23 | 113 | 4.8 | 12.9 | 0.00 | 0.03 | 0.03 | 90 | 1011.5 |
| 20260509151038 | 23 | 165 | 3.2 | 12.9 | 0.00 | 0.03 | 0.03 | 90 | 1011.3 |
| 20260509150533 | 23 | 174 | 3.2 | 8.0 | 0.00 | 0.03 | 0.03 | 90 | 1011.4 |
| 20260509150026 | 23 | 148 | 1.6 | 11.3 | 0.00 | 0.03 | 0.03 | 90 | 1011.6 |
| 20260509145521 | 23 | 143 | 3.2 | 11.3 | 0.00 | 0.03 | 0.03 | 90 | 1011.4 |
| 20260509145014 | 23 | 143 | 4.8 | 11.3 | 0.00 | 0.03 | 0.03 | 90 | 1011.3 |
| 20260509144509 | 23 | 142 | 4.8 | 11.3 | 0.00 | 0.03 | 0.03 | 90 | 1011.1 |
| 20260509144004 | 23 | 149 | 4.8 | 11.3 | 0.00 | 0.03 | 0.03 | 90 | 1011.1 |
| 20260509143958 | 23 | 159 | 3.2 | 11.3 | 0.00 | 0.03 | 0.03 | 90 | 1011.1 |
| 20260509142951 | 23 | 153 | 1.6 | 6.4 | 0.00 | 0.03 | 0.03 | 90 | 1010.9 |
| 20260509142444 | 23 | 142 | 3.2 | 9.7 | 0.00 | 0.03 | 0.03 | 90 | 1010.8 |
| 20260509142209 | 23 | 140 | 6.4 | 14.5 | 0.00 | 0.03 | 0.03 | 90 | 1010.9 |
| 20260509141432 | 23 | 119 | 6.4 | 14.5 | 0.00 | 0.03 | 0.03 | 90 | 1010.7 |
| 20260509140926 | 23 | 140 | 3.2 | 11.3 | 0.00 | 0.03 | 0.03 | 90 | 1010.7 |
| 20260509140420 | 23 | 142 | 3.2 | 11.3 | 0.00 | 0.03 | 0.03 | 90 | 1010.7 |
| 20260509140146 | 23 | 165 | 1.6 | 11.3 | 0.00 | 0.03 | 0.03 | 90 | 1010.7 |
| 20260509135409 | 23 | 317 | 0.0 | 4.8 | 0.00 | 0.03 | 0.03 | 90 | 1010.7 |
| 20260509134902 | 23 | 320 | 0.0 | 0.0 | 0.00 | 0.03 | 0.03 | 90 | 1010.9 |
| 20260509134356 | 23 | 320 | 0.0 | 1.6 | 0.00 | 0.03 | 0.03 | 90 | 1011.0 |
| 20260509133850 | 23 | 320 | 0.0 | 3.2 | 0.00 | 0.03 | 0.03 | 90 | 1011.1 |
| 20260509133345 | 23 | 320 | 0.0 | 3.2 | 0.00 | 0.03 | 0.03 | 90 | 1011.1 |
| 20260509132846 | 23 | 320 | 0.0 | 0.0 | 0.00 | 0.03 | 0.03 | 90 | 1011.0 |
| 20260509132346 | 22 | 320 | 0.0 | 6.4 | 0.00 | 0.03 | 0.03 | 90 | 1011.1 |
| 20260509131846 | 22 | 320 | 0.0 | 6.4 | 0.00 | 0.03 | 0.03 | 90 | 1011.2 |
| 20260509131345 | 22 | 67 | 0.0 | 0.0 | 0.00 | 0.03 | 0.03 | 90 | 1011.3 |
| 20260509130844 | 22 | 69 | 0.0 | 0.0 | 0.00 | 0.03 | 0.03 | 90 | 1011.1 |
| 20260509130350 | 22 | 78 | 0.0 | 0.0 | 0.00 | 0.03 | 0.03 | 89 | 1010.9 |
| 20260509130346 | 22 | 70 | 0.0 | 0.0 | 0.00 | 0.03 | 0.03 | 90 | 1010.9 |
| 20260509125617 | 22 | 78 | 0.0 | 0.0 | 0.00 | 0.03 | 0.03 | 89 | 1010.8 |
| 20260509124846 | 22 | 78 | 0.0 | 0.0 | 0.00 | 0.03 | 0.03 | 89 | 1010.8 |
| 20260509124345 | 22 | 78 | 0.0 | 0.0 | 0.00 | 0.03 | 0.03 | 89 | 1010.7 |
| 20260509123843 | 22 | 78 | 0.0 | 0.0 | 0.00 | 0.03 | 0.03 | 89 | 1010.8 |
| 20260509123344 | 22 | 78 | 0.0 | 0.0 | 0.00 | 0.03 | 0.03 | 89 | 1011.0 |
| 20260509122842 | 22 | 78 | 0.0 | 0.0 | 0.00 | 0.03 | 0.03 | 89 | 1010.8 |
| 20260509122344 | 22 | 78 | 0.0 | 0.0 | 0.00 | 0.03 | 0.03 | 89 | 1010.8 |
| 20260509121840 | 22 | 78 | 0.0 | 0.0 | 0.00 | 0.03 | 0.03 | 89 | 1010.8 |
| 20260509121339 | 22 | 78 | 0.0 | 4.8 | 0.00 | 0.03 | 0.03 | 89 | 1011.1 |
| 20260509121109 | 22 | 78 | 1.6 | 4.8 | 0.00 | 0.03 | 0.03 | 89 | 1011.0 |
| 20260509120339 | 22 | 78 | 1.6 | 4.8 | 0.00 | 0.03 | 0.03 | 89 | 1011.0 |
| 20260509115839 | 22 | 0 | 0.0 | 1.6 | 0.00 | 0.03 | 0.03 | 89 | 1011.1 |
| 20260509115344 | 22 | 0 | 0.0 | 3.2 | 0.00 | 0.03 | 0.03 | 89 | 1010.9 |
| 20260509115339 | 22 | 0 | 0.0 | 1.6 | 0.00 | 0.03 | 0.03 | 89 | 1011.0 |
| 20260509114609 | 22 | 0 | 1.6 | 6.4 | 0.00 | 0.03 | 0.03 | 89 | 1011.2 |
| 20260509113840 | 22 | 0 | 1.6 | 6.4 | 0.00 | 0.03 | 0.03 | 89 | 1011.3 |
| 20260509113339 | 22 | 0 | 0.0 | 6.4 | 0.00 | 0.03 | 0.03 | 89 | 1011.5 |
| 20260509112840 | 22 | 0 | 0.0 | 6.4 | 0.00 | 0.03 | 0.03 | 89 | 1011.5 |
| 20260509112338 | 22 | 0 | 0.0 | 1.6 | 0.00 | 0.03 | 0.03 | 89 | 1011.6 |
| 20260509111840 | 22 | 0 | 0.0 | 0.0 | 0.00 | 0.03 | 0.03 | 89 | 1011.7 |
| 20260509111339 | 22 | 0 | 0.0 | 4.8 | 0.00 | 0.03 | 0.03 | 89 | 1011.8 |
| 20260509110840 | 22 | 0 | 1.6 | 8.0 | 0.00 | 0.03 | 0.03 | 89 | 1011.8 |
| 20260509110338 | 22 | 0 | 1.6 | 8.0 | 0.00 | 0.03 | 0.03 | 89 | 1011.8 |
| 20260509105837 | 22 | 11 | 3.2 | 8.0 | 0.00 | 0.03 | 0.03 | 89 | 1012.0 |
| 20260509105338 | 22 | 11 | 3.2 | 8.0 | 0.00 | 0.03 | 0.03 | 88 | 1011.8 |
| 20260509104832 | 22 | 351 | 3.2 | 8.0 | 0.00 | 0.03 | 0.03 | 88 | 1011.9 |
| 20260509104333 | 22 | 12 | 3.2 | 8.0 | 0.00 | 0.03 | 0.03 | 88 | 1012.0 |
| 20260509103832 | 22 | 10 | 3.2 | 8.0 | 0.00 | 0.03 | 0.03 | 88 | 1012.0 |
| 20260509103333 | 22 | 12 | 1.6 | 8.0 | 0.00 | 0.03 | 0.03 | 88 | 1012.0 |
| 20260509102834 | 22 | 22 | 0.0 | 4.8 | 0.00 | 0.03 | 0.03 | 88 | 1011.8 |
| 20260509102334 | 22 | 24 | 0.0 | 0.0 | 0.00 | 0.03 | 0.03 | 88 | 1011.8 |
| 20260509101831 | 22 | 24 | 0.0 | 0.0 | 0.00 | 0.03 | 0.03 | 88 | 1011.7 |
| 20260509101602 | 22 | 24 | 0.0 | 0.0 | 0.00 | 0.03 | 0.03 | 88 | 1011.5 |
| 20260509100827 | 22 | 24 | 0.0 | 0.0 | 0.00 | 0.03 | 0.03 | 88 | 1011.2 |
| 20260509100326 | 22 | 24 | 0.0 | 0.0 | 0.00 | 0.03 | 0.03 | 88 | 1010.8 |
| 20260509095823 | 22 | 24 | 0.0 | 0.0 | 0.00 | 0.03 | 0.03 | 88 | 1010.5 |
| 20260509095553 | 22 | 24 | 0.0 | 0.0 | 0.03 | 0.03 | 0.03 | 88 | 1010.5 |
| 20260509094820 | 22 | 24 | 0.0 | 0.0 | 0.03 | 0.03 | 0.03 | 88 | 1010.5 |
| 20260509094548 | 22 | 24 | 0.0 | 0.0 | 0.03 | 0.03 | 0.03 | 88 | 1010.6 |
| 20260509093816 | 22 | 24 | 0.0 | 0.0 | 0.03 | 0.03 | 0.03 | 88 | 1010.6 |
| 20260509093316 | 22 | 24 | 0.0 | 0.0 | 0.03 | 0.03 | 0.03 | 88 | 1010.6 |
| 20260509092823 | 22 | 24 | 0.0 | 0.0 | 0.03 | 0.03 | 0.03 | 88 | 1010.6 |
| 20260509092817 | 22 | 24 | 0.0 | 0.0 | 0.03 | 0.03 | 0.03 | 88 | 1010.7 |
| 20260509091815 | 22 | 24 | 0.0 | 0.0 | 0.03 | 0.03 | 0.03 | 88 | 1010.5 |
| 20260509091545 | 22 | 24 | 0.0 | 0.0 | 0.03 | 0.03 | 0.03 | 88 | 1010.4 |
| 20260509091041 | 22 | 24 | 0.0 | 0.0 | 0.03 | 0.03 | 0.03 | 88 | 1010.3 |
| 20260509090303 | 22 | 24 | 0.0 | 0.0 | 0.03 | 0.03 | 0.03 | 88 | 1010.4 |
| 20260509085757 | 22 | 24 | 0.0 | 0.0 | 0.03 | 0.03 | 0.03 | 88 | 1010.4 |
| 20260509085251 | 22 | 24 | 0.0 | 0.0 | 0.00 | 0.00 | 0.00 | 88 | 1010.5 |
| 20260509084745 | 22 | 24 | 0.0 | 0.0 | 0.00 | 0.00 | 0.00 | 88 | 1010.5 |
| 20260509084239 | 22 | 24 | 0.0 | 3.2 | 0.00 | 0.00 | 0.00 | 88 | 1010.6 |
| 20260509083733 | 22 | 24 | 1.6 | 4.8 | 0.00 | 0.00 | 0.00 | 88 | 1010.6 |
| 20260509083227 | 22 | 24 | 1.6 | 6.4 | 0.00 | 0.00 | 0.00 | 88 | 1010.8 |
| 20260509082721 | 22 | 24 | 3.2 | 6.4 | 0.00 | 0.00 | 0.00 | 88 | 1010.9 |
| 20260509082215 | 22 | 17 | 1.6 | 6.4 | 0.00 | 0.00 | 0.00 | 88 | 1010.9 |
| 20260509081709 | 22 | 16 | 1.6 | 6.4 | 0.00 | 0.00 | 0.00 | 88 | 1011.1 |
| 20260509081435 | 22 | 15 | 1.6 | 6.4 | 0.00 | 0.00 | 0.00 | 87 | 1011.2 |
| 20260509080658 | 22 | 14 | 3.2 | 6.4 | 0.00 | 0.00 | 0.00 | 87 | 1011.1 |
| 20260509080152 | 22 | 36 | 1.6 | 6.4 | 0.00 | 0.00 | 0.00 | 87 | 1010.8 |
| 20260509075645 | 22 | 109 | 0.0 | 4.8 | 0.00 | 0.00 | 0.00 | 87 | 1010.7 |
| 20260509075139 | 22 | 134 | 0.0 | 0.0 | 0.00 | 0.00 | 0.00 | 87 | 1010.8 |
| 20260509074634 | 22 | 134 | 1.6 | 4.8 | 0.00 | 0.00 | 0.00 | 87 | 1010.6 |
| 20260509074127 | 22 | 135 | 1.6 | 4.8 | 0.00 | 0.00 | 0.00 | 87 | 1010.7 |
| 20260509073621 | 22 | 150 | 0.0 | 3.2 | 0.00 | 0.00 | 0.00 | 87 | 1010.8 |
| 20260509073114 | 22 | 150 | 0.0 | 1.6 | 0.00 | 0.00 | 0.00 | 87 | 1010.8 |